Wind_Speed
19 19 19 19 19 18 17 17 16 15 14 14 13 12 10 8 6 6 5 5 4 3 2 3 3 4 4 5 5 5 5 5 6 6 7 7 7 7 7 7 8 8 8
17 18 18 19 18 18 18 18 17 16 15 14 13 12 11 9 8 7 7 6 4 3 3 3 4 4 5 5 6 7 7 7 7 8 8 8 9 9 9 9 9 10 10
16 17 18 19 18 18 18 17 17 16 15 15 14 13 12 11 10 9 8 7 5 4 4 4 4 5 5 6 6 7 8 8 8 9 9 8 9 9 10 10 11 11 11
15 16 17 18 18 17 17 17 17 16 15 15 13 13 12 11 11 9 9 7 6 5 5 5 5 6 6 6 6 7 8 8 9 9 10 10 10 10 11 11 12 13 13
15 16 16 17 17 17 17 17 17 17 16 15 13 12 12 11 11 11 9 8 7 7 7 6 6 6 6 7 7 7 8 8 9 9 9 10 10 11 11 12 12 13 14
14 15 16 16 17 16 16 16 17 16 16 15 14 13 12 12 12 11 10 9 9 8 8 7 7 7 7 7 8 8 8 8 9 9 10 10 11 12 12 13 14 14 15
13 15 15 16 16 16 16 16 16 16 16 15 15 14 12 12 13 12 11 10 10 9 9 8 8 8 8 8 9 9 10 10 10 11 11 12 12 13 13 14 15 15 16
13 14 15 15 16 16 16 16 16 16 16 16 15 15 13 13 13 12 12 12 12 11 11 10 9 9 9 9 10 10 10 11 11 11 12 12 13 14 14 15 16 16 17
12 13 14 15 15 16 15 15 15 15 15 16 16 15 15 14 14 13 13 13 12 12 12 11 9 9 9 10 10 11 11 11 12 13 13 13 14 15 16 16 17 17 17
12 12 14 14 15 16 15 15 15 15 15 16 16 16 16 15 14 14 14 14 14 14 12 12 12 11 11 10 11 11 12 12 13 13 14 14 15 16 17 17 18 18 19
12 12 13 14 14 15 16 16 15 15 15 16 16 16 16 16 14 14 15 15 15 14 14 14 14 12 11 11 11 12 12 12 13 13 14 15 16 17 17 18 18 19 19
12 12 13 13 14 15 16 16 16 16 16 16 17 17 18 17 16 15 15 16 15 15 15 14 14 13 13 12 13 13 13 13 14 15 15 16 16 17 18 19 19 19 20
12 12 12 13 14 15 15 16 16 17 17 18 18 18 19 19 18 16 17 17 16 16 15 15 16 15 14 14 14 13 14 14 15 16 17 17 17 18 19 19 20 20 20
13 12 12 13 14 14 15 16 17 17 18 19 20 20 20 20 19 17 17 17 16 16 16 16 17 17 16 15 15 15 15 16 17 17 17 17 18 19 20 20 21 21 22
14 13 13 13 14 15 15 16 17 18 19 20 21 21 21 21 21 20 18 18 17 16 17 17 18 17 16 16 16 16 17 18 18 18 18 18 19 20 20 21 22 23 23
15 15 14 14 15 15 16 17 18 19 20 21 22 22 22 22 22 22 20 18 18 18 18 19 19 19 18 17 18 18 18 18 19 19 19 20 21 21 21 22 23 23 24
17 16 16 16 16 17 17 18 19 20 21 23 24 24 23 23 23 22 21 20 19 19 19 20 20 20 19 19 19 19 19 20 20 20 20 21 22 22 23 23 24 24 24
19 18 17 18 18 18 18 19 20 22 23 24 25 25 25 24 24 22 21 21 21 20 20 20 21 21 21 20 20 20 20 21 22 22 22 22 23 24 24 24 24 25 25
20 20 19 19 19 19 20 21 22 23 24 25 25 26 25 25 24 24 22 22 22 21 21 21 21 22 22 21 21 21 22 22 23 23 23 24 24 24 24 25 26 26 27
22 21 21 21 21 21 22 22 23 24 25 26 26 26 26 25 25 24 23 23 23 23 23 23 23 23 23 22 23 23 23 23 24 24 24 24 25 25 26 27 28 28 28
23 23 23 23 23 24 24 24 25 26 26 26 27 27 27 26 25 25 25 25 25 24 25 25 24 24 24 24 24 24 24 25 25 25 25 26 26 27 28 29 29 29 29
24 25 25 25 25 26 26 26 26 26 26 27 28 28 28 28 27 27 27 27 26 26 26 25 25 25 25 25 25 25 25 25 25 26 26 27 28 29 29 30 30 30 30
27 27 26 27 27 28 28 27 27 28 28 29 30 30 29 29 29 29 28 27 27 27 27 26 26 26 27 27 27 27 26 26 26 27 28 29 29 30 30 30 30 30 30
28 28 28 28 28 29 29 29 29 30 29 30 30 31 31 31 30 29 29 28 28 28 28 28 27 28 28 28 27 27 27 28 28 29 29 30 30 30 30 30 30 30 30
30 30 30 30 30 30 31 31 30 30 30 31 32 32 32 32 31 30 30 29 30 30 30 29 29 29 29 29 29 28 29 29 30 30 30 30 30 30 30 30 30 30 30
34 34 34 33 33 33 33 31 32 32 33 33 33 33 33 32 32 32 31 30 30 30 30 30 30 30 29 29 29 30 30 30 30 30 30 31 30 30 30 30 30 30 31
Wind_Direction
15 17 17 18 17 17 20 20 19 20 20 20 22 21 23 25 24 21 17 6 357 343 327 307 304 299 296 289 284 282 280 280 282 280 276 276 281 284 285 285 285 290 291
10 12 14 16 16 15 17 18 19 20 20 21 22 22 21 22 21 18 16 11 5 349 331 320 305 306 306 302 295 289 288 284 284 285 283 279 282 283 280 280 284 290 293
9 11 13 13 14 15 16 18 19 19 20 20 20 20 20 20 19 15 12 12 10 1 336 324 315 309 310 312 308 298 294 291 289 289 289 287 287 284 282 283 286 290 293
9 9 11 12 14 15 16 16 17 17 18 17 16 16 16 14 13 9 6 5 3 353 340 323 314 310 309 313 313 306 301 299 296 294 293 291 292 290 286 288 292 294 293
4 6 7 8 11 12 13 15 16 16 16 15 13 13 13 12 9 5 3 0 357 351 342 332 321 310 307 309 310 310 306 307 306 303 299 298 296 295 296 297 296 295 295
359 2 3 5 7 7 9 11 13 14 15 14 12 11 11 10 7 6 3 360 356 350 341 329 323 316 308 306 307 306 307 306 304 304 303 299 298 299 299 296 295 296 297
356 359 1 1 2 4 5 7 10 12 12 10 9 8 7 4 3 2 1 358 353 346 338 327 318 314 308 303 301 301 304 302 301 302 301 299 300 301 301 301 300 298 298
352 354 357 359 360 1 1 4 6 8 7 7 6 5 4 1 359 358 357 356 352 347 338 329 318 311 309 304 301 300 301 301 300 300 302 301 301 302 302 301 302 299 296
344 347 351 355 356 358 359 359 2 3 3 3 3 2 2 359 357 354 355 354 350 346 341 333 326 317 311 307 305 302 303 301 299 299 300 301 301 300 302 302 302 299 296
337 343 343 347 352 354 355 356 358 360 359 360 1 2 0 356 354 353 350 347 345 344 338 335 330 318 312 308 306 304 304 301 301 300 299 300 301 301 301 302 301 300 298
329 334 339 342 346 349 352 355 356 357 356 357 358 358 355 353 349 346 345 343 342 340 336 335 333 323 317 310 306 305 305 303 303 302 301 302 302 302 301 302 303 302 300
316 324 332 337 340 343 345 351 355 354 352 351 352 351 348 347 345 342 342 344 342 340 338 334 334 326 319 314 309 307 306 303 302 304 306 306 305 303 302 303 303 303 302
306 313 320 327 333 337 340 344 349 351 352 350 350 348 345 344 343 340 340 338 337 337 337 334 331 327 321 317 312 309 308 306 305 304 305 306 306 304 304 304 304 305 305
299 304 311 319 328 334 336 338 342 344 345 345 345 343 342 342 340 337 334 333 332 332 332 331 330 327 323 318 315 312 309 307 307 307 307 307 306 304 304 305 305 305 306
293 297 303 311 318 323 327 331 335 338 339 339 339 340 339 339 337 336 333 329 327 327 328 329 329 327 322 319 316 312 309 308 308 308 309 309 309 308 306 306 305 306 307
288 290 296 302 308 313 317 323 327 331 333 334 336 336 336 334 335 334 332 329 324 324 325 326 326 326 321 316 314 311 311 308 307 307 308 310 311 310 308 307 308 309 309
283 285 289 295 301 306 310 315 319 324 327 328 331 332 332 332 332 330 329 328 326 324 323 323 324 323 321 316 312 309 310 311 309 308 309 310 311 310 309 308 309 310 310
278 283 287 290 295 299 304 308 313 318 321 323 326 328 328 328 327 326 325 325 323 322 321 321 321 321 319 316 313 310 310 310 309 308 308 308 309 310 309 310 311 311 312
276 281 284 286 289 293 298 303 307 311 315 318 322 324 324 323 324 323 323 323 322 321 319 319 318 318 317 315 312 310 309 310 309 307 307 307 308 309 309 309 309 310 310
272 277 282 284 286 289 292 297 301 305 309 313 316 319 319 319 320 320 320 319 318 318 318 316 315 315 314 314 313 311 310 309 308 307 307 307 307 308 309 308 309 309 309
270 275 278 281 284 286 288 292 296 299 303 307 310 313 316 317 317 316 315 315 315 315 314 314 313 313 312 311 313 312 311 310 308 308 308 307 307 308 308 308 308 308 308
270 273 276 279 281 284 286 287 291 295 297 301 306 309 311 313 312 313 313 312 312 312 312 312 312 311 310 309 310 311 310 310 309 308 309 309 309 308 308 308 307 307 307
269 272 274 278 279 281 284 286 289 292 295 298 302 305 308 309 308 309 311 311 310 309 309 309 309 309 309 308 308 309 310 310 309 309 309 309 310 309 309 309 309 308 308
268 271 273 275 278 281 282 284 286 289 292 296 299 303 304 305 306 306 307 307 308 307 307 307 307 307 307 307 307 307 307 308 309 309 309 309 309 309 309 309 308 308 307
268 270 272 274 276 279 281 282 284 289 292 294 297 299 301 303 304 304 304 304 305 305 305 305 305 305 306 305 305 305 306 307 308 308 308 309 309 309 309 309 309 308 308
268 270 272 273 275 278 280 282 285 288 290 292 296 297 298 300 302 302 302 303 303 303 303 303 303 304 304 304 304 305 306 306 307 309 309 309 309 310 310 309 308 308 307
Height
5930 5928 5925 5923 5921 5918 5916 5914 5912 5910 5908 5907 5905 5904 5903 5902 5901 5900 5900 5899 5899 5899 5899 5899 5899 5899 5899 5899 5899 5899 5899 5899 5899 5900 5899 5899 5899 5899 5899 5899 5899 5898 5898
5931 5929 5927 5925 5922 5920 5918 5916 5914 5911 5910 5908 5907 5905 5904 5903 5902 5901 5900 5900 5899 5899 5899 5899 5899 5899 5899 5899 5898 5898 5898 5898 5898 5898 5898 5898 5898 5897 5897 5897 5897 5897 5896
5933 5930 5928 5926 5923 5921 5919 5917 5915 5913 5911 5909 5908 5907 5905 5904 5903 5902 5901 5900 5899 5899 5899 5898 5898 5898 5898 5898 5898 5897 5897 5897 5897 5896 5896 5896 5896 5895 5895 5895 5894 5894 5894
5934 5932 5930 5927 5925 5923 5921 5918 5916 5914 5912 5910 5909 5908 5906 5905 5904 5902 5901 5900 5899 5899 5898 5898 5897 5897 5897 5897 5896 5896 5895 5895 5895 5894 5894 5894 5893 5893 5892 5892 5892 5891 5891
5935 5933 5931 5929 5927 5925 5922 5920 5918 5916 5914 5912 5910 5909 5907 5906 5904 5903 5901 5900 5899 5899 5898 5897 5897 5897 5896 5896 5895 5895 5894 5894 5893 5893 5892 5892 5891 5890 5890 5890 5889 5888 5888
5937 5935 5932 5930 5928 5926 5924 5922 5919 5917 5915 5913 5911 5909 5908 5906 5905 5903 5902 5900 5899 5898 5897 5896 5896 5895 5895 5895 5894 5894 5893 5892 5892 5891 5891 5890 5889 5888 5888 5887 5886 5885 5885
5938 5936 5934 5931 5929 5927 5925 5923 5920 5918 5916 5914 5912 5910 5908 5907 5905 5903 5902 5900 5899 5898 5897 5895 5895 5894 5893 5893 5892 5892 5891 5890 5890 5889 5888 5887 5887 5886 5885 5884 5883 5882 5881
5938 5936 5934 5932 5930 5928 5926 5923 5921 5919 5917 5915 5913 5911 5909 5907 5905 5903 5902 5900 5899 5897 5896 5894 5893 5892 5892 5891 5890 5890 5889 5888 5888 5887 5886 5885 5884 5883 5882 5881 5880 5878 5878
5938 5937 5935 5933 5931 5928 5926 5924 5922 5920 5918 5916 5914 5911 5909 5907 5905 5903 5902 5900 5898 5897 5895 5893 5892 5891 5890 5889 5888 5887 5887 5886 5885 5884 5884 5882 5881 5880 5879 5878 5876 5875 5874
5938 5936 5934 5933 5931 5929 5927 5925 5922 5920 5919 5917 5914 5912 5909 5907 5905 5903 5901 5899 5898 5896 5894 5893 5891 5889 5888 5887 5886 5885 5885 5884 5883 5882 5881 5879 5878 5877 5875 5874 5872 5871 5869
5937 5935 5934 5932 5931 5929 5927 5925 5923 5921 5919 5917 5915 5912 5910 5907 5905 5903 5900 5899 5897 5895 5893 5891 5889 5887 5886 5885 5884 5883 5882 5881 5880 5879 5877 5876 5875 5873 5872 5870 5868 5866 5865
5935 5934 5933 5932 5930 5929 5926 5925 5923 5921 5919 5917 5914 5912 5909 5907 5904 5902 5899 5897 5895 5894 5892 5890 5888 5885 5884 5883 5881 5880 5879 5878 5877 5875 5874 5872 5871 5869 5868 5866 5864 5862 5860
5934 5933 5932 5931 5929 5928 5926 5924 5922 5920 5918 5916 5914 5911 5909 5906 5903 5901 5898 5896 5894 5892 5890 5888 5886 5884 5882 5880 5879 5877 5876 5875 5874 5872 5871 5869 5867 5865 5864 5862 5860 5857 5855
5932 5931 5931 5930 5928 5927 5925 5924 5922 5920 5918 5915 5913 5910 5907 5905 5902 5899 5897 5894 5892 5890 5888 5886 5884 5882 5880 5878 5876 5875 5873 5872 5870 5869 5867 5865 5863 5861 5859 5857 5855 5853 5851
5930 5930 5929 5929 5927 5926 5924 5923 5921 5919 5917 5914 5911 5908 5905 5903 5900 5897 5894 5892 5890 5888 5886 5884 5882 5880 5877 5875 5874 5872 5870 5869 5867 5865 5863 5861 5859 5857 5855 5853 5850 5848 5845
5928 5928 5927 5927 5926 5924 5923 5921 5919 5917 5915 5913 5910 5907 5904 5900 5897 5894 5891 5889 5888 5886 5884 5881 5879 5877 5874 5872 5871 5869 5867 5865 5863 5861 5859 5857 5855 5853 5850 5848 5845 5842 5840
5924 5924 5924 5924 5923 5922 5921 5919 5917 5915 5913 5910 5908 5905 5902 5898 5895 5892 5889 5887 5885 5883 5881 5878 5876 5874 5871 5869 5867 5865 5863 5861 5859 5857 5855 5853 5850 5848 5845 5842 5840 5837 5834
5921 5921 5921 5920 5920 5919 5918 5916 5914 5912 5910 5907 5905 5902 5899 5896 5893 5890 5887 5884 5882 5880 5877 5875 5873 5870 5868 5865 5863 5861 5859 5857 5855 5852 5850 5848 5845 5842 5840 5837 5834 5831 5828
5917 5917 5917 5916 5916 5915 5914 5912 5911 5909 5907 5904 5901 5898 5895 5893 5890 5887 5884 5881 5879 5877 5874 5872 5869 5867 5864 5862 5859 5857 5855 5852 5850 5847 5845 5842 5840 5837 5834 5831 5828 5825 5822
5911 5912 5912 5912 5911 5911 5910 5908 5907 5905 5903 5900 5898 5895 5892 5889 5886 5883 5881 5878 5876 5873 5871 5868 5865 5863 5860 5857 5855 5852 5850 5847 5845 5842 5840 5837 5834 5831 5828 5825 5822 5819 5816
5906 5907 5907 5907 5906 5906 5905 5903 5902 5900 5898 5896 5893 5891 5888 5885 5882 5880 5877 5874 5872 5869 5866 5864 5861 5858 5856 5853 5850 5847 5844 5842 5839 5837 5834 5831 5828 5825 5822 5819 5816 5812 5809
5901 5901 5901 5901 5901 5900 5899 5898 5896 5894 5893 5891 5889 5886 5883 5881 5878 5875 5872 5869 5867 5864 5861 5859 5856 5853 5851 5848 5845 5842 5839 5836 5833 5831 5828 5825 5822 5818 5815 5812 5809 5805 5802
5895 5895 5895 5895 5894 5894 5893 5892 5891 5889 5887 5885 5883 5880 5878 5875 5873 5870 5867 5864 5861 5859 5856 5853 5850 5848 5845 5842 5839 5836 5833 5830 5827 5825 5821 5818 5815 5811 5808 5805 5801 5798 5794
5888 5888 5888 5888 5888 5887 5886 5885 5884 5882 5881 5879 5876 5874 5871 5869 5866 5864 5861 5858 5855 5853 5850 5847 5844 5842 5839 5836 5833 5830 5827 5824 5821 5818 5815 5811 5808 5804 5801 5797 5794 5791 5787
5880 5880 5880 5880 5880 5879 5878 5877 5876 5875 5873 5871 5869 5867 5865 5862 5860 5857 5854 5851 5849 5846 5844 5841 5838 5835 5832 5830 5827 5824 5821 5818 5815 5811 5808 5804 5801 5797 5794 5790 5787 5783 5780
5872 5872 5872 5872 5872 5871 5870 5869 5868 5867 5865 5864 5862 5859 5857 5855 5852 5850 5847 5844 5842 5839 5836 5834 5831 5828 5826 5823 5820 5817 5814 5811 5807 5804 5801 5797 5794 5790 5787 5783 5780 5776 5772